C/2019 O3 ( Palomar )

Japanese version
Home page
Updated on August 11, 2020

---------------------------------------------------------------------

* Profile

Discovery Date July 26, 2019
Magnitude 19.3 mag
Discoverer Q.-Z. Ye (Oschin Schmidt telescope, Palomar)

* Pictures

* Orbital Elements

Epoch 2021 Mar. 7.0 TT = JDT 2459280.5
T 2021 Mar. 7.99385 TT                                  Rudenko
q   8.8194021            (2000.0)            P               Q
z  -0.0002584      Peri.   60.05075     +0.25489545     -0.43682426
 +/-0.0000017      Node   300.38091     -0.73850334     +0.48797009
e   1.0022786      Incl.   89.81525     +0.62421240     +0.75569158
From 228 observations 2019 May 14-2020 July 27, mean residual 0".4.

* Finding Charts

* Magnitudes Graph

        m1 = -44.5 + 5 log d + 60 log r

---------------------------------------------------------------------

The orbital elements are published on M.P.E.C. 2020-P19.
The charts are made with StellaNavigator Ver.10 (AstroArts).
The magnitudes graphs are made with Comet for Windows.

---------------------------------------------------------------------

Copyright(C) Seiichi Yoshida (comet@aerith.net). All rights reserved.